Regional Weather Roundup
Issued by NWS

Home | Current Version | Previous Version | Text Only | Print | Product List | Glossary Off
Versions: 1 2 3 4 5 6 7 8 9 10 11 12 13 14 15 16 17 18 19 20 21 22 23 24 25 26 27 28 29 30 31 32 33 34 35 36 37 38 39 40 41 42 43 44 45 46 47 48 49 50

000
ASUS43 KLSX 250807
RWRMO

WEATHER SUMMARY FOR MISSOURI
NATIONAL WEATHER SERVICE SPRINGFIELD MO
200 AM CST THU DEC 25 2014

NOTE: "FAIR" INDICATES FEW OR NO CLOUDS BELOW 12,000 FEET WITH NO
       SIGNIFICANT WEATHER AND/OR OBSTRUCTIONS TO VISIBILITY.
       CURRENT SKY AND/OR WEATHER CONDITIONS ARE NOT AVAILABLE FOR
       CHILLICOTHE AND FARMINGTON.

MOZ001>031-035>038-043-044-053-054-250900-
...NORTHERN AND WESTERN MISSOURI...

CITY           SKY/WX    TMP DP  RH WIND       PRES   REMARKS
KANSAS CTY INT CLEAR     30  28  92 S10       29.78F WCI  21
KANSAS C DTWN  CLEAR     33  28  81 S9        29.80F WCI  25
LEE`S SUMMIT   CLEAR     31  27  85 S12       29.80F WCI  22
ST JOSEPH      CLEAR     31  28  89 S9        29.78S WCI  23
CHILLICOTHE      N/A     31  27  85 S6        29.83S WCI  25
KIRKSVILLE     CLOUDY    33  29  85 SW10      29.83R WCI  25

$$
MOZ066>068-077>081-088>096-101>105-250900-
...SOUTHWEST MISSOURI...

CITY           SKY/WX    TMP DP  RH WIND       PRES   REMARKS
SPRINGFIELD    CLEAR     30  27  88 S10       29.90R WCI  21
JOPLIN         CLEAR     33  29  85 S9        29.89S WCI  25

$$
MOZ032>034-039>042-045>050-055>058-069>072-250900-
...CENTRAL MISSOURI...

CITY           SKY/WX    TMP DP  RH WIND       PRES   REMARKS
COLUMBIA       PTCLDY    31  29  92 S7        29.89R WCI  24
JEFFERSON CITY FAIR      35  28  75 SW3       29.92R
ROLLA          PTCLDY    33  28  81 SW9       29.89R WCI  25
SEDALIA        CLEAR     32  28  85 S8        29.87R WCI  25
WHITEMAN AFB   CLEAR     29  26  91 S9        29.85S WCI  20
WARRENSBURG    CLEAR     30  28  93 S7        29.85S WCI  23
OSAGE BEACH    CLEAR     32  27  80 S5        29.90R WCI  27

$$
MOZ051-052-059>065-250900-
...EAST CENTRAL MISSOURI...

CITY           SKY/WX    TMP DP  RH WIND       PRES   REMARKS
ST LOUIS INTL  CLOUDY    39  30  70 W10       29.91R
SPIRIT OF STL  CLOUDY    38  31  76 W9        29.90R
ST CHARLES     CLOUDY    38  33  82 SW10      29.90R

$$
MOZ072>076-082>087-097>100-106>115-250900-
...SOUTH CENTRAL AND SOUTHEAST MISSOURI...

CITY           SKY/WX    TMP DP  RH WIND       PRES   REMARKS
CAPE GIRARDEAU CLOUDY    39  33  79 W9        29.97R
FARMINGTON     CLOUDY    37  28  70 SW7       29.94R
POPLAR BLUFF   CLOUDY    40  30  67 W5        29.97R
WEST PLAINS    CLEAR     30  26  85 SW3       29.94R

$$


USA.gov is the U.S. government's official web portal to all federal, state and local government web resources and services.